| time (UTC) | temp F | wind direction | speed MPH | gust MPH | rain 1hr in | rain 24hr in | rain mn in | humidity % | barometer mb |
| 20260503233517 | 56 | 0.0 | 6.0 | 0.00 | 0.00 | 0.00 | 47 | 1011.9 | |
| 20260503232517 | 56 | 0.0 | 3.0 | 0.00 | 0.00 | 0.00 | 45 | 1012.0 | |
| 20260503231517 | 56 | 0.0 | 1.0 | 0.00 | 0.00 | 0.00 | 46 | 1012.0 | |
| 20260503230517 | 56 | 0.0 | 2.0 | 0.00 | 0.00 | 0.00 | 45 | 1012.1 | |
| 20260503225517 | 56 | 180 | 1.0 | 10.0 | 0.00 | 0.00 | 0.00 | 46 | 1011.9 |
| 20260503224517 | 56 | 0.0 | 7.0 | 0.00 | 0.00 | 0.00 | 46 | 1012.0 | |
| 20260503223517 | 56 | 248 | 1.0 | 12.0 | 0.00 | 0.00 | 0.00 | 44 | 1012.0 |
| 20260503222517 | 56 | 0.0 | 1.0 | 0.00 | 0.00 | 0.00 | 46 | 1012.1 | |
| 20260503221517 | 56 | 203 | 1.0 | 8.0 | 0.00 | 0.00 | 0.00 | 43 | 1012.1 |
| 20260503220517 | 57 | 0.0 | 6.0 | 0.00 | 0.00 | 0.00 | 44 | 1012.3 | |
| 20260503215517 | 57 | 270 | 2.0 | 11.0 | 0.00 | 0.00 | 0.00 | 45 | 1012.2 |
| 20260503214516 | 57 | 0.0 | 9.0 | 0.00 | 0.00 | 0.00 | 46 | 1012.1 | |
| 20260503213517 | 57 | 0.0 | 6.0 | 0.00 | 0.00 | 0.00 | 44 | 1011.9 | |
| 20260503212517 | 58 | 270 | 3.0 | 13.0 | 0.00 | 0.00 | 0.00 | 42 | 1011.9 |
| 20260503211516 | 59 | 225 | 1.0 | 10.0 | 0.00 | 0.00 | 0.00 | 43 | 1012.0 |
| 20260503210517 | 58 | 203 | 3.0 | 15.0 | 0.00 | 0.00 | 0.00 | 43 | 1011.9 |
| 20260503205516 | 59 | 203 | 2.0 | 15.0 | 0.00 | 0.00 | 0.00 | 40 | 1012.0 |
| 20260503204557 | 59 | 248 | 1.0 | 12.0 | 0.00 | 0.00 | 0.00 | 42 | 1012.1 |
| 20260503203516 | 59 | 270 | 2.0 | 14.0 | 0.00 | 0.00 | 0.00 | 44 | 1012.2 |
| 20260503202516 | 57 | 270 | 5.0 | 16.0 | 0.00 | 0.00 | 0.00 | 40 | 1012.3 |
| 20260503201517 | 58 | 270 | 7.0 | 16.0 | 0.00 | 0.00 | 0.00 | 36 | 1012.4 |
| 20260503200517 | 59 | 270 | 1.0 | 13.0 | 0.00 | 0.00 | 0.00 | 40 | 1012.4 |
| 20260503195517 | 58 | 270 | 5.0 | 15.0 | 0.00 | 0.00 | 0.00 | 38 | 1012.6 |
| 20260503194516 | 59 | 270 | 2.0 | 14.0 | 0.00 | 0.00 | 0.00 | 41 | 1012.9 |
| 20260503193516 | 58 | 293 | 2.0 | 15.0 | 0.00 | 0.00 | 0.00 | 41 | 1013.0 |
| 20260503192537 | 57 | 270 | 3.0 | 16.0 | 0.00 | 0.00 | 0.00 | 42 | 1013.1 |
| 20260503191536 | 58 | 270 | 5.0 | 17.0 | 0.00 | 0.00 | 0.00 | 41 | 1013.4 |
| 20260503190516 | 58 | 0.0 | 7.0 | 0.00 | 0.00 | 0.00 | 46 | 1013.5 | |
| 20260503185516 | 57 | 270 | 1.0 | 7.0 | 0.00 | 0.00 | 0.00 | 47 | 1013.4 |
| 20260503184537 | 58 | 270 | 1.0 | 10.0 | 0.00 | 0.00 | 0.00 | 43 | 1013.6 |
| 20260503183516 | 57 | 270 | 8.0 | 16.0 | 0.00 | 0.00 | 0.00 | 43 | 1013.8 |
| 20260503182537 | 56 | 0.0 | 9.0 | 0.00 | 0.00 | 0.00 | 44 | 1013.8 | |
| 20260503181516 | 56 | 270 | 1.0 | 10.0 | 0.00 | 0.00 | 0.00 | 45 | 1014.1 |
| 20260503180516 | 56 | 270 | 3.0 | 10.0 | 0.00 | 0.00 | 0.00 | 45 | 1014.3 |
| 20260503175516 | 56 | 270 | 1.0 | 14.0 | 0.00 | 0.00 | 0.00 | 43 | 1014.3 |
| 20260503174516 | 57 | 180 | 5.0 | 20.0 | 0.00 | 0.00 | 0.00 | 46 | 1014.5 |
| 20260503173516 | 56 | 270 | 6.0 | 18.0 | 0.00 | 0.00 | 0.00 | 47 | 1014.6 |
| 20260503172537 | 55 | 225 | 3.0 | 11.0 | 0.00 | 0.00 | 0.00 | 46 | 1014.7 |
| 20260503171516 | 55 | 270 | 3.0 | 21.0 | 0.00 | 0.00 | 0.00 | 45 | 1014.7 |
| 20260503170516 | 55 | 270 | 1.0 | 11.0 | 0.00 | 0.00 | 0.00 | 50 | 1014.9 |
| 20260503150516 | 51 | 270 | 3.0 | 14.0 | 0.00 | 0.01 | 0.00 | 52 | 1015.9 |
| 20260503130516 | 43 | 270 | 2.0 | 6.0 | 0.00 | 0.01 | 0.00 | 72 | 1016.3 |
| 20260503110516 | 32 | 180 | 3.0 | 5.0 | 0.00 | 0.01 | 0.00 | 90 | 1015.3 |
| 20260503081515 | 31 | 0.0 | 1.0 | 0.00 | 0.01 | 0.00 | 89 | 1015.2 | |
| 20260503080516 | 31 | 0.0 | 0.0 | 0.00 | 0.01 | 0.00 | 90 | 1015.3 | |
| 20260503072518 | 30 | 0.0 | 0.0 | 0.00 | 0.01 | 0.00 | 90 | 1015.3 | |
| 20260503071538 | 30 | 0.0 | 0.0 | 0.00 | 0.01 | 0.00 | 90 | 1015.2 | |
| 20260503070518 | 30 | 0.0 | 0.0 | 0.00 | 0.01 | 0.00 | 89 | 1015.3 | |
| 20260503054518 | 31 | 0.0 | 0.0 | 0.00 | 0.01 | 0.00 | 88 | 1015.7 | |
| 20260503053518 | 31 | 0.0 | 0.0 | 0.00 | 0.01 | 0.00 | 88 | 1015.5 | |
| 20260503052518 | 32 | 0.0 | 0.0 | 0.00 | 0.01 | 0.00 | 88 | 1015.7 | |
| 20260503051518 | 32 | 0.0 | 0.0 | 0.00 | 0.01 | 0.00 | 87 | 1015.6 | |
| 20260503050537 | 32 | 0.0 | 0.0 | 0.00 | 0.01 | 0.00 | 87 | 1015.8 | |
| 20260503045517 | 32 | 0.0 | 0.0 | 0.00 | 0.01 | 0.00 | 86 | 1015.8 | |
| 20260503044517 | 32 | 0.0 | 0.0 | 0.00 | 0.01 | 0.00 | 85 | 1015.8 | |
| 20260503043517 | 33 | 270 | 1.0 | 2.0 | 0.00 | 0.01 | 0.00 | 85 | 1015.8 |
| 20260503042517 | 33 | 0.0 | 0.0 | 0.00 | 0.01 | 0.00 | 84 | 1015.9 | |
| 20260503041517 | 33 | 0.0 | 1.0 | 0.00 | 0.01 | 0.00 | 84 | 1016.0 | |
| 20260503040537 | 33 | 0.0 | 0.0 | 0.00 | 0.01 | 0.00 | 83 | 1015.9 | |
| 20260503035517 | 34 | 0.0 | 0.0 | 0.00 | 0.01 | 0.01 | 83 | 1016.0 | |
| 20260503034517 | 34 | 0.0 | 0.0 | 0.00 | 0.01 | 0.01 | 82 | 1016.1 | |
| 20260503033517 | 34 | 0.0 | 1.0 | 0.00 | 0.01 | 0.01 | 81 | 1016.0 | |
| 20260503032517 | 34 | 0.0 | 2.0 | 0.00 | 0.01 | 0.01 | 81 | 1016.1 | |
| 20260503031517 | 35 | 0.0 | 0.0 | 0.00 | 0.01 | 0.01 | 80 | 1016.2 | |
| 20260503030517 | 35 | 0.0 | 2.0 | 0.00 | 0.01 | 0.01 | 79 | 1016.3 | |
| 20260503025517 | 36 | 0.0 | 0.0 | 0.00 | 0.01 | 0.01 | 78 | 1016.3 | |
| 20260503024517 | 36 | 270 | 2.0 | 3.0 | 0.00 | 0.01 | 0.01 | 77 | 1016.3 |
| 20260503023517 | 36 | 0.0 | 3.0 | 0.00 | 0.01 | 0.01 | 77 | 1016.4 | |
| 20260503022517 | 37 | 248 | 2.0 | 3.0 | 0.00 | 0.01 | 0.01 | 76 | 1016.4 |
| 20260503021517 | 37 | 270 | 2.0 | 4.0 | 0.00 | 0.01 | 0.01 | 75 | 1016.4 |
| 20260503020517 | 37 | 270 | 1.0 | 4.0 | 0.00 | 0.01 | 0.01 | 74 | 1016.3 |
| 20260503015517 | 38 | 0.0 | 2.0 | 0.00 | 0.01 | 0.01 | 74 | 1016.5 | |
| 20260503014517 | 38 | 0.0 | 3.0 | 0.00 | 0.01 | 0.01 | 73 | 1016.5 | |
| 20260503013537 | 38 | 270 | 1.0 | 3.0 | 0.00 | 0.01 | 0.01 | 72 | 1016.5 |
| 20260503012517 | 38 | 270 | 2.0 | 6.0 | 0.00 | 0.01 | 0.01 | 72 | 1016.3 |
| 20260503011517 | 38 | 293 | 1.0 | 4.0 | 0.00 | 0.01 | 0.01 | 71 | 1016.4 |
| 20260503010517 | 38 | 0.0 | 1.0 | 0.00 | 0.01 | 0.01 | 71 | 1016.4 | |
| 20260503005517 | 39 | 270 | 2.0 | 6.0 | 0.00 | 0.01 | 0.01 | 69 | 1016.3 |
| 20260503004537 | 39 | 293 | 2.0 | 4.0 | 0.00 | 0.01 | 0.01 | 69 | 1016.2 |
| 20260503003517 | 39 | 270 | 2.0 | 5.0 | 0.00 | 0.01 | 0.01 | 68 | 1016.2 |
| 20260503002517 | 39 | 270 | 3.0 | 7.0 | 0.00 | 0.01 | 0.01 | 68 | 1016.2 |
| 20260503001517 | 39 | 270 | 2.0 | 5.0 | 0.00 | 0.01 | 0.01 | 67 | 1016.2 |
| 20260503000517 | 39 | 270 | 2.0 | 5.0 | 0.00 | 0.01 | 0.01 | 68 | 1016.2 |
| 20260502235517 | 40 | 293 | 2.0 | 4.0 | 0.00 | 0.01 | 0.01 | 67 | 1016.2 |
| 20260502234517 | 40 | 315 | 4.0 | 8.0 | 0.00 | 0.01 | 0.01 | 66 | 1016.0 |